Location: Dob?e?
(49.9411°N, 15.1496°E)
Time: 12:18:57
(UTC+00:00)

DELFI C3 - Pass Details

Date: 28 October 2021
Orbit: 529 x 543 km, 97.4° (Epoch: 29 November)

Event Time Altitude Azimuth Distance (km) Brightness Sun altitude
Exits shadow 17:58:20 70° 14° (NNE) 570 ? -22.3°
Drops below altitude 10° 18:01:50 10° 349° (N) 1,791 ? -22.8°
Sets 18:03:57 0° 348° (NNW) 2,687 ? -23.2°
